Flag for Canada Weather past 2 weeks in Abbotsford, British Columbia, Canada

Now
61 °F

Partly cloudy.


Feels Like: 61 °F
Forecast: 57 / 73 °F
Wind: 5 mph from Northwest

Location: Abbotsford

Current Time: Sep 16, 2014 at 10:29:10 PM

Latest Report: Sep 16, 2014 at 10:00 PM


Visibility: 15 mi

Pressure: 29.86 "Hg

Humidity: 83%

Dew point: 55 °F

Location of AbbotsfordLocation

Historic Weather in Abbotsford — Graph

°F

Abbotsford temperature yesterday

Maximum temperature yesterday: 86 °F (at 3:00 PM)
Minimum temperature yesterday: 52 °F (at 3:00 AM)
Average temperature yesterday: 68 °F

Past Weeks' High & Low Weather Summary

 TemperatureHumidityPressure
High86 °F (Sep 6, 3:00 PM)100% (Sep 2, 6:00 AM)30.35 "Hg (Sep 2, 6:00 AM)
Low46 °F (Sep 12, 5:00 AM)20% (Sep 10, 1:00 PM)29.78 "Hg (Sep 7, 8:00 PM)
Average63 °F66%30.00 "Hg
* Reported Sep 1 9:00 PM — Sep 16 9:00 PM, Abbotsford, Weather by CustomWeather, © 2014

Note: Actual official high and low records may vary slightly from our data, if they occured in-between our weather recording intervals... More about our weather records

Advertising

Abbotsford weather history for previous 24 hours

 ConditionsComfort  
Time TempWeatherWind HumidityBarometerVisibility
9:00 PM
Sep 16
61 °FPassing clouds.No wind83%29.86 "Hg15 mi
8:00 PM63 °FScattered clouds.6 mph73%29.85 "Hg15 mi
7:00 PM66 °FPartly sunny.9 mph64%29.85 "Hg30 mi
6:00 PM68 °FPartly sunny.13 mph60%29.85 "Hg30 mi
5:00 PM70 °FPartly sunny.14 mph53%29.84 "Hg30 mi
4:00 PM73 °FPassing clouds.13 mph50%29.84 "Hg30 mi
3:00 PM73 °FPassing clouds.13 mph50%29.85 "Hg30 mi
2:00 PM73 °FPassing clouds.13 mph47%29.86 "Hg30 mi
1:00 PM72 °FPassing clouds.10 mph50%29.86 "Hg30 mi
12:00 PM72 °FPassing clouds.6 mph50%29.87 "Hg30 mi
11:00 AM72 °FPassing clouds.6 mph47%29.87 "Hg30 mi
10:00 AM68 °FPassing clouds.3 mph46%29.88 "Hg30 mi
9:00 AM63 °FPassing clouds.3 mph64%29.87 "Hg30 mi
8:00 AM55 °FPassing clouds.5 mph82%29.87 "Hg30 mi
7:00 AM48 °FPassing clouds.3 mph94%29.88 "Hg30 mi
6:00 AM52 °FPassing clouds.3 mph88%29.85 "Hg15 mi
5:00 AM54 °FClear.No wind88%29.83 "Hg15 mi
4:00 AM54 °FClear.3 mph82%29.83 "Hg15 mi
3:00 AM54 °FClear.No wind94%29.84 "Hg15 mi
2:00 AM55 °FClear.No wind82%29.84 "Hg15 mi
1:00 AM57 °FClear.No wind77%29.83 "Hg15 mi
12:00 AM61 °FClear.3 mph77%29.83 "Hg15 mi
11:00 PM
Sep 15
61 °FClear.No wind77%29.82 "Hg15 mi
10:00 PM63 °FPassing clouds.No wind73%29.81 "Hg15 mi
Weather by CustomWeather, © 2014

See weather overviewHow to use our weather pages